CW1852 Weather Reports


Display with metric or nautical units.
time (UTC)temp
F
wind
direction
speed
MPH
gust
MPH
rain 1hr
in
rain 24hr
in
rain mn
in
humidity
%
barometer
mb
20200120025202 18 3 6.0 11.0 0.00 0.09 0.09 76 1008.9
20200120024203 18 7 2.0 9.0 0.00 0.09 0.09 76 1008.9
20200120023202 19 349 4.0 14.0 0.00 0.09 0.09 76 1008.6
20200120022202 20 4 4.0 11.0 0.00 0.09 0.09 76 1008.5
20200120021203 20 345 4.0 18.0 0.00 0.09 0.09 76 1008.3
20200120020202 20 350 8.0 14.0 0.00 0.09 0.09 76 1008.1
20200120015202 21 355 4.0 14.0 0.00 0.09 0.09 77 1007.9
20200120014203 21 358 7.0 14.0 0.00 0.09 0.09 77 1007.9
20200120013203 21 13 5.0 11.0 0.00 0.09 0.09 78 1007.7
20200120012202 22 13 4.0 12.0 0.00 0.09 0.09 78 1007.4
20200120011202 23 35 9.0 18.0 0.00 0.09 0.09 79 1007.2
20200120010202 24 24 6.0 11.0 0.00 0.09 0.09 82 1007.2
20200120005202 25 17 5.0 11.0 0.00 0.09 0.09 82 1007.1
20200120004203 25 357 3.0 10.0 0.00 0.09 0.09 83 1006.8
20200120003202 25 337 3.0 10.0 0.00 0.09 0.09 83 1006.6
20200120002202 26 342 4.0 9.0 0.00 0.09 0.09 83 1006.5
20200120001203 26 6 3.0 8.0 0.00 0.09 0.09 82 1006.3
20200120000202 26 4 3.0 6.0 0.00 0.09 0.09 82 1006.1
20200119235202 26 22 3.0 9.0 0.00 0.09 0.09 82 1005.9
20200119234202 26 22 4.0 10.0 0.00 0.09 0.09 82 1005.6
20200119233202 27 327 4.0 9.0 0.00 0.09 0.09 82 1005.4
20200119232203 27 9 4.0 9.0 0.00 0.09 0.09 82 1005.2
20200119231202 27 348 2.0 14.0 0.00 0.09 0.09 82 1005.0
20200119230202 27 15 4.0 8.0 0.00 0.09 0.09 83 1004.9
20200119225202 27 10 5.0 10.0 0.00 0.09 0.09 84 1004.7
20200119224202 28 44 2.0 5.0 0.00 0.09 0.09 86 1004.5
20200119223203 28 25 3.0 4.0 0.00 0.09 0.09 86 1004.1
20200119222202 28 349 1.0 2.0 0.00 0.09 0.09 86 1003.9
20200119221202 28 349 1.0 3.0 0.00 0.09 0.09 86 1003.8
20200119220203 28 349 1.0 2.0 0.00 0.09 0.09 85 1003.7
20200119215202 28 349 1.0 4.0 0.00 0.09 0.09 84 1003.3
20200119214202 28 349 2.0 4.0 0.00 0.09 0.09 84 1003.1
20200119213203 28 349 2.0 3.0 0.00 0.09 0.09 84 1002.9
20200119212202 28 349 2.0 4.0 0.00 0.09 0.09 84 1002.7
20200119211203 28 349 2.0 4.0 0.00 0.09 0.09 84 1002.5
20200119210202 29 7 1.0 4.0 0.00 0.09 0.09 83 1002.4
20200119205202 29 4 2.0 7.0 0.00 0.09 0.09 82 1002.1
20200119204202 29 54 2.0 4.0 0.00 0.09 0.09 83 1002.0
20200119203202 29 54 2.0 3.0 0.00 0.09 0.09 84 1001.9
20200119202203 29 54 2.0 4.0 0.00 0.09 0.09 84 1001.6
20200119201202 29 54 2.0 3.0 0.00 0.09 0.09 83 1001.5
20200119200202 29 52 3.0 5.0 0.00 0.09 0.09 82 1001.3
20200119195202 29 326 1.0 4.0 0.00 0.09 0.09 83 1001.2
20200119194202 29 308 2.0 5.0 0.00 0.09 0.09 82 1001.0
20200119193203 29 298 2.0 7.0 0.00 0.09 0.09 82 1000.7
20200119192203 29 339 2.0 6.0 0.00 0.09 0.09 82 1000.6
20200119191202 29 336 2.0 9.0 0.00 0.09 0.09 82 1000.3
20200119190203 29 299 1.0 8.0 0.00 0.09 0.09 82 1000.3
20200119185203 29 311 3.0 9.0 0.00 0.09 0.09 82 1000.1
20200119184202 29 297 4.0 9.0 0.00 0.09 0.09 82 999.9
20200119183202 29 314 5.0 9.0 0.00 0.09 0.09 81 999.7
20200119182203 29 322 4.0 8.0 0.00 0.09 0.09 84 999.5
20200119181203 29 311 4.0 10.0 0.00 0.09 0.09 82 999.7
20200119180202 29 275 3.0 8.0 0.00 0.09 0.09 83 999.7
20200119175203 29 307 3.0 10.0 0.00 0.09 0.09 83 999.7
20200119174202 28 345 2.0 8.0 0.00 0.09 0.09 83 999.8
20200119173202 28 298 3.0 9.0 0.00 0.09 0.09 83 1000.0
20200119172203 28 303 5.0 11.0 0.00 0.09 0.09 83 1000.0
20200119171202 27 317 6.0 10.0 0.00 0.09 0.09 82 999.9
20200119170202 27 290 3.0 9.0 0.00 0.09 0.09 84 1000.1
20200119165203 26 312 5.0 10.0 0.00 0.09 0.09 84 1000.1
20200119164203 27 311 3.0 9.0 0.00 0.09 0.09 85 1000.3
20200119163203 26 305 4.0 10.0 0.00 0.09 0.09 86 1000.4
20200119162202 26 261 6.0 10.0 0.00 0.09 0.09 86 1000.2
20200119161202 26 303 3.0 9.0 0.00 0.09 0.09 89 1000.1
20200119160203 24 271 2.0 8.0 0.00 0.09 0.09 89 1000.3
20200119155203 24 304 4.0 10.0 0.00 0.09 0.09 91 1000.2
20200119154203 22 303 6.0 10.0 0.00 0.09 0.09 91 1000.1
20200119153203 21 296 4.0 11.0 0.00 0.09 0.09 91 1000.2
20200119152202 21 310 5.0 11.0 0.00 0.09 0.09 91 1000.3
20200119151202 20 300 5.0 11.0 0.00 0.09 0.09 91 1000.2
20200119150203 20 304 6.0 11.0 0.00 0.09 0.09 91 1000.1
20200119145202 19 316 5.0 9.0 0.00 0.09 0.09 91 1000.1
20200119144203 19 299 3.0 9.0 0.00 0.09 0.09 91 1000.2
20200119143202 19 333 4.0 8.0 0.00 0.09 0.09 91 1000.0
20200119142203 19 334 3.0 8.0 0.00 0.09 0.09 91 1000.0
20200119141203 18 329 4.0 10.0 0.00 0.09 0.09 91 1000.0
20200119140202 18 319 4.0 10.0 0.00 0.09 0.09 91 999.9
20200119135203 17 309 3.0 10.0 0.00 0.09 0.09 91 999.7
20200119134203 17 317 5.0 12.0 0.00 0.09 0.09 91 999.5
20200119133202 17 314 5.0 11.0 0.00 0.09 0.09 91 999.6
20200119132203 16 298 6.0 10.0 0.00 0.09 0.09 91 999.8
20200119131203 16 305 5.0 9.0 0.00 0.09 0.09 91 999.9
20200119130202 16 313 5.0 12.0 0.00 0.09 0.09 91 999.7
20200119125203 16 333 4.0 10.0 0.00 0.09 0.09 91 999.8
20200119124203 16 321 5.0 10.0 0.00 0.09 0.09 91 999.9
20200119123203 16 325 3.0 13.0 0.00 0.09 0.09 91 999.9
20200119122203 17 325 7.0 12.0 0.00 0.09 0.09 91 999.9
20200119121203 17 314 8.0 13.0 0.00 0.09 0.09 91 999.6
20200119120202 17 312 9.0 14.0 0.00 0.09 0.09 91 999.5
20200119115203 17 323 6.0 14.0 0.00 0.09 0.09 92 999.4
20200119114203 17 320 7.0 14.0 0.00 0.09 0.09 91 999.4
20200119113203 18 326 7.0 16.0 0.00 0.09 0.09 92 999.7
20200119112203 19 313 7.0 14.0 0.00 0.09 0.09 92 999.7
20200119111203 21 318 6.0 17.0 0.00 0.09 0.09 92 999.9
20200119110203 21 312 6.0 13.0 0.00 0.09 0.09 92 1000.2
20200119105203 22 310 8.0 17.0 0.01 0.09 0.09 92 1000.2
20200119104202 24 312 5.0 17.0 0.01 0.09 0.09 92 1000.1
20200119103202 25 312 8.0 13.0 0.01 0.09 0.09 93 1000.1
20200119102203 27 307 8.0 16.0 0.01 0.09 0.09 93 1000.1
20200119101202 29 325 6.0 13.0 0.01 0.09 0.09 93 1000.2
20200119100203 32 321 5.0 10.0 0.00 0.08 0.08 93 999.9
20200119095203 34 332 3.0 10.0 0.00 0.08 0.08 93 1000.1
20200119094202 36 181 2.0 10.0 0.00 0.08 0.08 94 1000.2
20200119093203 36 165 6.0 14.0 0.00 0.08 0.08 94 1000.3
20200119092203 36 159 6.0 16.0 0.00 0.08 0.08 94 1000.5
20200119091203 36 147 6.0 15.0 0.00 0.08 0.08 94 1000.8
20200119090202 36 141 6.0 15.0 0.00 0.08 0.08 94 1000.9
20200119085203 36 155 8.0 14.0 0.00 0.08 0.08 94 1001.0
20200119084203 35 151 8.0 19.0 0.00 0.08 0.08 94 1001.3
20200119083203 35 135 7.0 17.0 0.00 0.08 0.08 94 1001.7
20200119082203 35 145 7.0 20.0 0.00 0.08 0.08 94 1002.1
20200119081203 35 145 10.0 21.0 0.00 0.08 0.08 94 1002.3
20200119080203 35 147 10.0 23.0 0.00 0.08 0.08 94 1002.6
20200119075204 35 160 9.0 30.0 0.02 0.08 0.08 94 1003.2
20200119074203 34 148 9.0 17.0 0.02 0.08 0.08 94 1003.5
20200119073203 34 143 7.0 16.0 0.02 0.08 0.08 94 1003.8
20200119072203 34 149 8.0 16.0 0.01 0.07 0.07 94 1004.2
20200119071202 34 164 10.0 23.0 0.01 0.07 0.07 94 1004.5
20200119070203 34 158 11.0 19.0 0.00 0.06 0.06 94 1005.0
20200119065203 33 160 10.0 22.0 0.03 0.06 0.06 93 1005.4
20200119064202 33 162 11.0 22.0 0.03 0.06 0.06 93 1005.9
20200119063203 33 154 9.0 17.0 0.02 0.05 0.05 93 1006.2
20200119062203 33 161 6.0 14.0 0.02 0.05 0.05 93 1006.5
20200119061202 33 156 9.0 18.0 0.01 0.04 0.04 93 1006.8
20200119055157 32 159 9.0 16.0 0.02 0.02 0.02 93 1007.8
20200119054157 32 146 7.0 17.0 0.02 0.02 0.02 93 1008.1
20200119053157 32 145 7.0 14.0 0.01 0.01 0.01 93 1008.4
20200119052157 32 164 9.0 22.0 0.00 0.00 0.00 93 1009.1
20200119051157 31 162 9.0 19.0 0.00 0.00 0.00 93 1009.5
20200119050157 31 151 6.0 18.0 0.00 0.00 0.00 93 1010.1
20200119045157 31 166 8.0 21.0 0.00 0.00 0.00 93 1010.6
20200119044157 30 163 5.0 18.0 0.00 0.00 0.00 93 1010.8
20200119043157 30 161 6.0 16.0 0.00 0.00 0.00 92 1011.3
20200119042157 29 151 9.0 19.0 0.00 0.00 0.00 92 1011.5
20200119041157 29 163 7.0 19.0 0.00 0.00 0.00 92 1011.9
20200119040157 29 163 13.0 22.0 0.00 0.00 0.00 92 1012.4
20200119035157 29 165 6.0 18.0 0.00 0.00 0.00 92 1012.7
20200119034157 29 160 8.0 15.0 0.00 0.00 0.00 91 1013.0
20200119033157 29 167 9.0 18.0 0.00 0.00 0.00 92 1013.3
20200119032157 28 168 8.0 19.0 0.00 0.00 0.00 92 1013.5
20200119031157 28 150 5.0 15.0 0.00 0.00 0.00 91 1013.7
20200119030157 27 153 6.0 10.0 0.00 0.00 0.00 91 1013.9